Retour au catalogue

LEMUR 2 TOMATOKECHUP

ActifMétéoSSO
NORAD 60471·PAYLOAD·🇺🇸 United States

Lancé Aug 16, 2024 depuis Vandenberg Space Force Base

Loading…

Prochains Passages (prochaines 24 heures)

TLE

FraisSource: Space-Track

Époque: Sep 14, 2026, 04:14 UTC

1 60471U 24149D   26257.17696503  .00008339  00000-0  22767-3 0  9997
2 60471  97.3749 339.5309 0000150 237.1657 122.9574 15.37672871115833

Suivez LEMUR 2 TOMATOKECHUP en temps réel avec AllMySat

Download on the App Store